Simultaneous Nadir Overpasses (SNOs) Predictions

Prediction of SNOs between GOES-16 and METOP-C Satellite Orbit:

Table of predicted SNOs for the next 14.0 days since TLE Epoch: 5/30/2021
Index Date Time (GOES-16) GOES-16 Lat,Lon METOP-C Lat,Lon Distance(km) Time Diff (sec)
1 05/30/2021 02:34:12 0.02, -75.19 0.00, -75.29 11.49 80
2 06/01/2021 14:29:43 -0.04, -75.23 -0.10, -74.86 42.49 80
3 06/03/2021 02:51:24 0.04, -75.23 -0.90, -79.46 481.92 80
4 06/04/2021 02:28:05 0.04, -75.25 0.22, -74.47 88.71 80
5 06/05/2021 14:49:35 -0.04, -75.29 0.81, -79.03 425.66 80
6 06/06/2021 14:26:16 -0.04, -75.31 -0.32, -74.03 145.37 80
7 06/08/2021 02:47:56 0.04, -75.32 -0.73, -78.63 377.65 80
8 06/09/2021 02:24:37 0.04, -75.34 0.40, -73.64 193.53 80
9 06/10/2021 14:46:08 -0.04, -75.39 0.58, -78.20 320.37 80
10 06/11/2021 14:22:48 -0.05, -75.41 -0.54, -73.21 250.90 80
